| time (UTC) | temp F | wind direction | speed MPH | gust MPH | rain 1hr in | rain 24hr in | rain mn in | humidity % | barometer mb |
| 20260504185018 | 72 | 0 | 0.0 | 0.0 | 0.00 | 0.01 | 0.00 | 45 | 1005.9 |
| 20260504184556 | 72 | 0 | 0.0 | 0.0 | 0.00 | 0.01 | 0.00 | 48 | 1006.0 |
| 20260504184019 | 72 | 0 | 0.0 | 0.0 | 0.00 | 0.01 | 0.00 | 48 | 1005.9 |
| 20260504183517 | 71 | 0 | 0.0 | 0.0 | 0.00 | 0.01 | 0.00 | 47 | 1005.9 |
| 20260504183033 | 70 | 0 | 0.0 | 0.0 | 0.00 | 0.01 | 0.00 | 47 | 1006.0 |
| 20260504182518 | 69 | 0 | 0.0 | 0.0 | 0.00 | 0.01 | 0.00 | 47 | 1006.1 |
| 20260504182015 | 70 | 0 | 0.0 | 0.0 | 0.00 | 0.01 | 0.00 | 49 | 1006.1 |
| 20260504181530 | 69 | 0 | 0.0 | 0.0 | 0.00 | 0.01 | 0.00 | 46 | 1006.1 |
| 20260504181020 | 68 | 0 | 0.0 | 0.0 | 0.00 | 0.01 | 0.00 | 48 | 1006.1 |
| 20260504180518 | 69 | 0 | 0.0 | 0.0 | 0.00 | 0.01 | 0.00 | 46 | 1006.1 |
| 20260504180032 | 70 | 0 | 0.0 | 0.0 | 0.00 | 0.01 | 0.00 | 51 | 1006.1 |
| 20260504175517 | 70 | 0 | 0.0 | 0.0 | 0.00 | 0.01 | 0.00 | 49 | 1006.1 |
| 20260504175017 | 70 | 0 | 0.0 | 0.0 | 0.00 | 0.01 | 0.00 | 46 | 1006.1 |
| 20260504174530 | 69 | 0 | 0.0 | 0.0 | 0.00 | 0.01 | 0.00 | 50 | 1006.1 |
| 20260504174017 | 67 | 0 | 0.0 | 0.0 | 0.00 | 0.01 | 0.00 | 52 | 1006.1 |
| 20260504173516 | 68 | 0 | 0.0 | 0.0 | 0.00 | 0.01 | 0.00 | 47 | 1006.2 |
| 20260504173036 | 68 | 0 | 0.0 | 0.0 | 0.00 | 0.01 | 0.00 | 49 | 1006.2 |
| 20260504172517 | 68 | 0 | 0.0 | 0.0 | 0.00 | 0.01 | 0.00 | 51 | 1006.1 |
| 20260504172018 | 69 | 0 | 0.0 | 0.0 | 0.00 | 0.01 | 0.00 | 52 | 1006.3 |
| 20260504171535 | 68 | 0 | 0.0 | 0.0 | 0.00 | 0.01 | 0.00 | 49 | 1006.2 |
| 20260504171024 | 68 | 0 | 0.0 | 0.0 | 0.00 | 0.01 | 0.00 | 49 | 1006.2 |
| 20260504170517 | 69 | 0 | 0.0 | 0.0 | 0.00 | 0.01 | 0.00 | 51 | 1006.4 |
| 20260504151017 | 63 | 0 | 0.0 | 0.0 | 0.00 | 0.01 | 0.00 | 53 | 1007.5 |
| 20260504150515 | 62 | 0 | 0.0 | 0.0 | 0.00 | 0.01 | 0.00 | 52 | 1007.6 |
| 20260504141017 | 60 | 0 | 0.0 | 0.0 | 0.00 | 0.01 | 0.00 | 55 | 1007.8 |
| 20260504140517 | 60 | 0 | 0.0 | 0.0 | 0.00 | 0.01 | 0.00 | 58 | 1007.8 |
| 20260504130521 | 54 | 0 | 0.0 | 0.0 | 0.00 | 0.01 | 0.00 | 62 | 1008.4 |
| 20260504110518 | 47 | 0 | 0.0 | 0.0 | 0.00 | 0.01 | 0.00 | 71 | 1008.9 |
| 20260504100517 | 45 | 0 | 0.0 | 0.0 | 0.00 | 0.01 | 0.00 | 80 | 1008.8 |
| 20260504081535 | 41 | 0 | 0.0 | 0.0 | 0.00 | 0.01 | 0.00 | 91 | 1008.9 |
| 20260504081017 | 41 | 0 | 0.0 | 0.0 | 0.00 | 0.01 | 0.00 | 91 | 1008.9 |
| 20260504080518 | 41 | 0 | 0.0 | 0.0 | 0.00 | 0.01 | 0.00 | 91 | 1008.9 |
| 20260504050521 | 46 | 0 | 0.0 | 0.0 | 0.00 | 0.01 | 0.00 | 92 | 1009.2 |
| 20260504045517 | 46 | 0 | 0.0 | 0.0 | 0.00 | 0.01 | 0.00 | 92 | 1009.3 |
| 20260504045017 | 46 | 0 | 0.0 | 0.0 | 0.00 | 0.01 | 0.00 | 92 | 1009.4 |
| 20260504044535 | 46 | 0 | 0.0 | 0.0 | 0.00 | 0.01 | 0.00 | 92 | 1009.4 |
| 20260504044017 | 46 | 0 | 0.0 | 0.0 | 0.00 | 0.01 | 0.00 | 92 | 1009.4 |
| 20260504043517 | 46 | 0 | 0.0 | 0.0 | 0.00 | 0.01 | 0.00 | 92 | 1009.4 |
| 20260504043035 | 46 | 0 | 0.0 | 0.0 | 0.00 | 0.01 | 0.00 | 92 | 1009.3 |
| 20260504042516 | 46 | 0 | 0.0 | 0.0 | 0.00 | 0.01 | 0.00 | 92 | 1009.4 |
| 20260504042016 | 46 | 0 | 0.0 | 0.0 | 0.00 | 0.01 | 0.00 | 92 | 1009.3 |
| 20260504041542 | 46 | 0 | 0.0 | 0.0 | 0.00 | 0.01 | 0.00 | 92 | 1009.6 |
| 20260504041019 | 46 | 0 | 0.0 | 0.0 | 0.00 | 0.01 | 0.00 | 92 | 1009.7 |
| 20260504040517 | 46 | 0 | 0.0 | 0.0 | 0.00 | 0.01 | 0.00 | 92 | 1009.7 |
| 20260504040040 | 46 | 0 | 0.0 | 0.0 | 0.00 | 0.01 | 0.00 | 91 | 1009.8 |
| 20260504035517 | 46 | 0 | 0.0 | 0.0 | 0.00 | 0.01 | 0.01 | 91 | 1009.8 |
| 20260504035018 | 46 | 0 | 0.0 | 0.0 | 0.00 | 0.01 | 0.01 | 91 | 1009.8 |
| 20260504034539 | 46 | 0 | 0.0 | 0.0 | 0.00 | 0.01 | 0.01 | 91 | 1009.7 |
| 20260504034017 | 46 | 0 | 0.0 | 0.0 | 0.00 | 0.01 | 0.01 | 90 | 1009.6 |
| 20260504033517 | 46 | 0 | 0.0 | 0.0 | 0.00 | 0.01 | 0.01 | 90 | 1009.7 |
| 20260504033033 | 46 | 0 | 0.0 | 0.0 | 0.00 | 0.01 | 0.01 | 90 | 1009.8 |
| 20260504032518 | 46 | 0 | 0.0 | 0.0 | 0.01 | 0.01 | 0.01 | 89 | 1009.8 |
| 20260504032018 | 46 | 0 | 0.0 | 0.0 | 0.01 | 0.01 | 0.01 | 89 | 1009.9 |
| 20260504031536 | 47 | 0 | 0.0 | 0.0 | 0.01 | 0.01 | 0.01 | 89 | 1010.1 |
| 20260504031016 | 47 | 0 | 0.0 | 0.0 | 0.01 | 0.01 | 0.01 | 88 | 1010.1 |
| 20260504030516 | 47 | 0 | 0.0 | 0.0 | 0.01 | 0.01 | 0.01 | 88 | 1010.3 |
| 20260504030035 | 47 | 0 | 0.0 | 0.0 | 0.01 | 0.01 | 0.01 | 87 | 1010.5 |
| 20260504025516 | 47 | 0 | 0.0 | 0.0 | 0.01 | 0.01 | 0.01 | 87 | 1010.7 |
| 20260504025018 | 47 | 0 | 0.0 | 0.0 | 0.01 | 0.01 | 0.01 | 86 | 1010.6 |
| 20260504024539 | 48 | 0 | 0.0 | 0.0 | 0.01 | 0.01 | 0.01 | 85 | 1010.2 |
| 20260504024017 | 48 | 0 | 0.0 | 0.0 | 0.01 | 0.01 | 0.01 | 85 | 1010.3 |
| 20260504023517 | 48 | 0 | 0.0 | 0.0 | 0.01 | 0.01 | 0.01 | 84 | 1010.5 |
| 20260504023031 | 48 | 0 | 0.0 | 0.0 | 0.01 | 0.01 | 0.01 | 82 | 1010.8 |
| 20260504022519 | 48 | 0 | 0.0 | 0.0 | 0.00 | 0.00 | 0.00 | 82 | 1010.9 |
| 20260504022017 | 48 | 0 | 0.0 | 0.0 | 0.00 | 0.00 | 0.00 | 82 | 1010.9 |
| 20260504021539 | 48 | 0 | 0.0 | 0.0 | 0.00 | 0.00 | 0.00 | 81 | 1010.9 |
| 20260504021017 | 48 | 0 | 0.0 | 0.0 | 0.00 | 0.00 | 0.00 | 81 | 1010.9 |
| 20260504020517 | 49 | 0 | 0.0 | 0.0 | 0.00 | 0.00 | 0.00 | 78 | 1010.9 |
| 20260504020038 | 49 | 0 | 0.0 | 0.0 | 0.00 | 0.00 | 0.00 | 76 | 1010.7 |
| 20260504015517 | 49 | 0 | 0.0 | 0.0 | 0.00 | 0.00 | 0.00 | 76 | 1010.6 |
| 20260504015017 | 49 | 0 | 0.0 | 0.0 | 0.00 | 0.00 | 0.00 | 78 | 1010.7 |
| 20260504014535 | 49 | 0 | 0.0 | 0.0 | 0.00 | 0.00 | 0.00 | 78 | 1010.7 |
| 20260504014019 | 49 | 0 | 0.0 | 0.0 | 0.00 | 0.00 | 0.00 | 76 | 1010.7 |
| 20260504013516 | 49 | 0 | 0.0 | 0.0 | 0.00 | 0.00 | 0.00 | 74 | 1010.4 |
| 20260504013047 | 49 | 0 | 0.0 | 0.0 | 0.00 | 0.00 | 0.00 | 74 | 1010.4 |
| 20260504012517 | 49 | 0 | 0.0 | 0.0 | 0.00 | 0.00 | 0.00 | 73 | 1010.3 |
| 20260504012016 | 50 | 0 | 0.0 | 0.0 | 0.00 | 0.00 | 0.00 | 72 | 1010.3 |
| 20260504011536 | 50 | 0 | 0.0 | 0.0 | 0.00 | 0.00 | 0.00 | 71 | 1010.2 |
| 20260504011018 | 50 | 0 | 0.0 | 0.0 | 0.00 | 0.00 | 0.00 | 69 | 1010.1 |
| 20260504010517 | 50 | 0 | 0.0 | 0.0 | 0.00 | 0.00 | 0.00 | 70 | 1009.8 |
| 20260504010040 | 51 | 0 | 0.0 | 0.0 | 0.00 | 0.00 | 0.00 | 67 | 1009.8 |
| 20260504005517 | 51 | 0 | 0.0 | 0.0 | 0.00 | 0.01 | 0.00 | 67 | 1009.9 |
| 20260504005018 | 51 | 0 | 0.0 | 0.0 | 0.00 | 0.01 | 0.00 | 66 | 1010.0 |
| 20260504004534 | 51 | 0 | 0.0 | 0.0 | 0.00 | 0.01 | 0.00 | 66 | 1009.8 |
| 20260504004016 | 51 | 0 | 0.0 | 0.0 | 0.00 | 0.01 | 0.00 | 66 | 1009.8 |
| 20260504003515 | 51 | 0 | 0.0 | 0.0 | 0.00 | 0.01 | 0.00 | 64 | 1010.0 |
| 20260504003032 | 52 | 0 | 0.0 | 0.0 | 0.00 | 0.01 | 0.00 | 62 | 1010.0 |
| 20260504002516 | 52 | 0 | 0.0 | 0.0 | 0.00 | 0.01 | 0.00 | 61 | 1010.0 |
| 20260504002017 | 52 | 0 | 0.0 | 0.0 | 0.00 | 0.01 | 0.00 | 55 | 1010.0 |
| 20260504001537 | 53 | 0 | 0.0 | 0.0 | 0.00 | 0.01 | 0.00 | 59 | 1010.0 |
| 20260504001017 | 53 | 0 | 0.0 | 0.0 | 0.00 | 0.01 | 0.00 | 56 | 1010.1 |
| 20260504000522 | 53 | 0 | 0.0 | 0.0 | 0.00 | 0.01 | 0.00 | 54 | 1010.1 |
| 20260504000033 | 53 | 0 | 0.0 | 0.0 | 0.00 | 0.01 | 0.00 | 55 | 1010.1 |
| 20260503235517 | 52 | 0 | 0.0 | 0.0 | 0.00 | 0.01 | 0.00 | 54 | 1010.1 |
| 20260503235018 | 52 | 0 | 0.0 | 0.0 | 0.00 | 0.01 | 0.00 | 58 | 1010.1 |
| 20260503234534 | 51 | 0 | 0.0 | 0.0 | 0.00 | 0.01 | 0.00 | 61 | 1010.3 |
| 20260503234014 | 52 | 0 | 0.0 | 0.0 | 0.00 | 0.01 | 0.00 | 64 | 1010.1 |
| 20260503233518 | 52 | 0 | 0.0 | 0.0 | 0.00 | 0.01 | 0.00 | 60 | 1009.9 |
| 20260503233032 | 53 | 0 | 0.0 | 0.0 | 0.00 | 0.01 | 0.00 | 55 | 1009.7 |
| 20260503232517 | 53 | 0 | 0.0 | 0.0 | 0.00 | 0.01 | 0.00 | 56 | 1009.6 |
| 20260503232017 | 53 | 0 | 0.0 | 0.0 | 0.00 | 0.01 | 0.00 | 54 | 1009.5 |
| 20260503231534 | 53 | 0 | 0.0 | 0.0 | 0.00 | 0.01 | 0.00 | 52 | 1009.5 |
| 20260503231018 | 54 | 0 | 0.0 | 0.0 | 0.00 | 0.01 | 0.00 | 50 | 1009.4 |
| 20260503230517 | 54 | 0 | 0.0 | 0.0 | 0.00 | 0.01 | 0.00 | 50 | 1009.5 |
| 20260503230040 | 54 | 0 | 0.0 | 0.0 | 0.00 | 0.01 | 0.00 | 52 | 1009.4 |
| 20260503225517 | 54 | 0 | 0.0 | 0.0 | 0.00 | 0.01 | 0.00 | 51 | 1009.5 |
| 20260503225015 | 54 | 0 | 0.0 | 0.0 | 0.00 | 0.01 | 0.00 | 52 | 1009.3 |
| 20260503224531 | 54 | 0 | 0.0 | 0.0 | 0.00 | 0.01 | 0.00 | 53 | 1009.4 |
| 20260503224018 | 54 | 0 | 0.0 | 0.0 | 0.00 | 0.01 | 0.00 | 51 | 1009.6 |
| 20260503223516 | 54 | 0 | 0.0 | 0.0 | 0.00 | 0.01 | 0.00 | 51 | 1009.7 |
| 20260503223035 | 54 | 0 | 0.0 | 0.0 | 0.00 | 0.01 | 0.00 | 51 | 1009.5 |
| 20260503222516 | 54 | 0 | 0.0 | 0.0 | 0.00 | 0.01 | 0.00 | 51 | 1009.6 |
| 20260503222015 | 54 | 0 | 0.0 | 0.0 | 0.00 | 0.01 | 0.00 | 50 | 1009.6 |
| 20260503221533 | 54 | 0 | 0.0 | 0.0 | 0.00 | 0.01 | 0.00 | 51 | 1009.7 |
| 20260503221016 | 54 | 0 | 0.0 | 0.0 | 0.00 | 0.01 | 0.00 | 53 | 1009.6 |
| 20260503220515 | 54 | 0 | 0.0 | 0.0 | 0.00 | 0.01 | 0.00 | 58 | 1009.6 |
| 20260503220037 | 54 | 0 | 0.0 | 0.0 | 0.00 | 0.01 | 0.00 | 52 | 1009.6 |
| 20260503215515 | 54 | 0 | 0.0 | 0.0 | 0.00 | 0.01 | 0.00 | 53 | 1009.6 |
| 20260503215016 | 54 | 0 | 0.0 | 0.0 | 0.00 | 0.01 | 0.00 | 51 | 1009.6 |
| 20260503214540 | 54 | 0 | 0.0 | 0.0 | 0.00 | 0.01 | 0.00 | 49 | 1009.5 |
| 20260503214015 | 54 | 0 | 0.0 | 0.0 | 0.00 | 0.01 | 0.00 | 50 | 1009.5 |
| 20260503213516 | 54 | 0 | 0.0 | 0.0 | 0.00 | 0.01 | 0.00 | 52 | 1009.6 |
| 20260503213032 | 54 | 0 | 0.0 | 0.0 | 0.00 | 0.01 | 0.00 | 51 | 1009.5 |
| 20260503212515 | 54 | 0 | 0.0 | 0.0 | 0.00 | 0.01 | 0.00 | 49 | 1009.5 |
| 20260503212016 | 54 | 0 | 0.0 | 0.0 | 0.00 | 0.01 | 0.00 | 48 | 1009.6 |
| 20260503211532 | 54 | 0 | 0.0 | 0.0 | 0.00 | 0.01 | 0.00 | 48 | 1009.6 |
| 20260503211018 | 54 | 0 | 0.0 | 0.0 | 0.00 | 0.01 | 0.00 | 47 | 1009.6 |
| 20260503210515 | 54 | 0 | 0.0 | 0.0 | 0.00 | 0.01 | 0.00 | 51 | 1009.6 |
| 20260503210033 | 54 | 0 | 0.0 | 0.0 | 0.00 | 0.01 | 0.00 | 48 | 1009.5 |
| 20260503205515 | 54 | 0 | 0.0 | 0.0 | 0.00 | 0.01 | 0.00 | 50 | 1009.6 |
| 20260503205016 | 54 | 0 | 0.0 | 0.0 | 0.00 | 0.01 | 0.00 | 51 | 1009.6 |
| 20260503204534 | 53 | 0 | 0.0 | 0.0 | 0.00 | 0.01 | 0.00 | 48 | 1009.5 |
| 20260503204015 | 53 | 0 | 0.0 | 0.0 | 0.00 | 0.01 | 0.00 | 48 | 1009.7 |
| 20260503203521 | 53 | 0 | 0.0 | 0.0 | 0.00 | 0.01 | 0.00 | 50 | 1009.8 |
| 20260503203038 | 53 | 0 | 0.0 | 0.0 | 0.00 | 0.01 | 0.00 | 48 | 1009.8 |
| 20260503202519 | 53 | 0 | 0.0 | 0.0 | 0.00 | 0.01 | 0.00 | 46 | 1009.7 |
| 20260503202016 | 53 | 0 | 0.0 | 0.0 | 0.00 | 0.01 | 0.00 | 48 | 1009.8 |
| 20260503201534 | 53 | 0 | 0.0 | 0.0 | 0.00 | 0.01 | 0.00 | 43 | 1009.8 |
| 20260503201015 | 53 | 0 | 0.0 | 0.0 | 0.00 | 0.01 | 0.00 | 46 | 1009.8 |
| 20260503200515 | 53 | 0 | 0.0 | 0.0 | 0.00 | 0.01 | 0.00 | 44 | 1009.9 |
| 20260503200034 | 53 | 0 | 0.0 | 0.0 | 0.00 | 0.01 | 0.00 | 44 | 1009.9 |
| 20260503195516 | 53 | 0 | 0.0 | 0.0 | 0.00 | 0.01 | 0.00 | 43 | 1009.8 |
| 20260503195019 | 53 | 0 | 0.0 | 0.0 | 0.00 | 0.01 | 0.00 | 43 | 1009.8 |
| 20260503194531 | 54 | 0 | 0.0 | 0.0 | 0.00 | 0.01 | 0.00 | 46 | 1009.9 |
| 20260503194020 | 54 | 0 | 0.0 | 0.0 | 0.00 | 0.01 | 0.00 | 42 | 1009.8 |
| 20260503193518 | 54 | 0 | 0.0 | 0.0 | 0.00 | 0.01 | 0.00 | 40 | 1010.0 |
| 20260503193044 | 54 | 0 | 0.0 | 0.0 | 0.00 | 0.01 | 0.00 | 43 | 1010.1 |
| 20260503192517 | 55 | 0 | 0.0 | 0.0 | 0.00 | 0.01 | 0.00 | 40 | 1010.1 |
| 20260503192017 | 55 | 0 | 0.0 | 0.0 | 0.00 | 0.01 | 0.00 | 41 | 1010.0 |
| 20260503191602 | 55 | 0 | 0.0 | 0.0 | 0.00 | 0.01 | 0.00 | 39 | 1009.9 |
| 20260503191018 | 55 | 0 | 0.0 | 0.0 | 0.00 | 0.01 | 0.00 | 46 | 1010.2 |
| 20260503190516 | 54 | 0 | 0.0 | 0.0 | 0.00 | 0.01 | 0.00 | 42 | 1010.3 |
| 20260503190035 | 55 | 0 | 0.0 | 0.0 | 0.00 | 0.01 | 0.00 | 39 | 1010.2 |
| 20260503185521 | 55 | 0 | 0.0 | 0.0 | 0.00 | 0.01 | 0.00 | 41 | 1010.5 |